Location: Gerlach
(40.6516°N, 119.3568°W)
Time: 04:34:31
(UTC-07:00)

Vanguard 2 Rocket - Pass Details

Date: 27 February 2024
Orbit: 555 x 3307 km, 32.9° (Epoch: 23 April)

Event Time Altitude Azimuth Distance (km) Brightness Sun altitude
Rises 18:30:01 0° 275° (W) 5,419 13.0 -9.1°
Reaches altitude 10° 18:33:17 10° 270° (W) 4,743 12.2 -9.7°
Maximum altitude 18:46:45 45° 204° (SSW) 3,632 10.1 -12.3°
Drops below altitude 10° 19:04:58 10° 140° (SE) 6,255 10.7 -15.7°
Sets 19:10:08 0° 134° (SE) 7,220 11.0 -16.7°
